DW8052 Weather Reports


time (UTC)temp
F
wind
direction
speed
knots
gust
knots
rain 1hr
in
rain 24hr
in
rain mn
in
humidity
%
barometer
mb
20260504234218 65 254 12.2 17.4 0.00 0.28 0.00 54 1018.9
20260504233719 65 261 15.6 20.9 0.00 0.28 0.00 54 1018.8
20260504233217 65 261 14.8 18.2 0.00 0.28 0.00 54 1018.8
20260504232717 65 267 12.2 19.1 0.00 0.28 0.00 54 1018.9
20260504232217 64 259 8.7 17.4 0.00 0.28 0.00 54 1018.8
20260504231717 64 271 8.7 15.6 0.00 0.28 0.00 55 1018.8
20260504231217 64 275 11.3 17.4 0.00 0.28 0.00 55 1018.7
20260504230717 64 272 12.2 17.4 0.00 0.28 0.00 54 1018.7
20260504225717 63 266 6.1 11.3 0.00 0.28 0.00 57 1019.0
20260504225217 63 272 8.7 15.6 0.00 0.28 0.00 56 1019.0
20260504224717 63 273 8.7 13.0 0.00 0.28 0.00 56 1018.7
20260504224217 63 279 5.2 13.9 0.00 0.28 0.00 58 1018.6
20260504223718 63 290 8.7 12.2 0.00 0.28 0.00 57 1018.7
20260504222717 62 328 4.3 12.2 0.00 0.28 0.00 60 1019.1
20260504222217 62 303 11.3 14.8 0.00 0.28 0.00 58 1018.7
20260504221717 62 311 11.3 13.9 0.00 0.28 0.00 57 1018.6
20260504221217 62 312 6.1 12.2 0.00 0.28 0.00 59 1018.6
20260504220217 62 299 7.8 13.0 0.00 0.28 0.00 58 1018.4
20260504215717 63 280 8.7 12.2 0.00 0.28 0.00 56 1018.4
20260504215217 64 291 7.8 10.4 0.00 0.28 0.00 53 1018.4
20260504214717 66 298 3.5 7.0 0.00 0.28 0.00 52 1018.5
20260504214217 65 264 2.6 5.2 0.00 0.28 0.00 55 1018.6
20260504213717 64 195 0.9 4.3 0.00 0.28 0.00 55 1018.3
20260504213217 64 225 4.3 7.0 0.00 0.28 0.00 55 1018.3
20260504212717 64 241 5.2 7.8 0.00 0.28 0.00 54 1018.2
20260504212216 63 326 2.6 5.2 0.00 0.28 0.00 55 1018.1
20260504211717 63 22 3.5 6.1 0.00 0.28 0.00 56 1018.2
20260504211217 62 222 5.2 11.3 0.00 0.28 0.00 58 1018.2
20260504210717 61 263 6.1 8.7 0.00 0.28 0.00 59 1017.7
20260504205717 60 287 10.4 13.9 0.00 0.28 0.00 59 1017.4
20260504205217 60 281 11.3 14.8 0.00 0.28 0.00 60 1017.2
20260504204717 60 286 12.2 15.6 0.00 0.28 0.00 60 1017.1
20260504204217 60 281 11.3 17.4 0.00 0.28 0.00 60 1017.0
20260504203717 60 281 13.9 18.2 0.00 0.28 0.00 60 1016.9
20260504203217 60 279 12.2 17.4 0.00 0.28 0.00 61 1016.8
20260504202217 60 278 13.9 18.2 0.00 0.28 0.00 61 1016.8
20260504201717 60 278 13.0 19.1 0.00 0.28 0.00 62 1016.8
20260504200717 60 278 13.9 17.4 0.00 0.28 0.00 62 1016.9
20260504200217 60 278 11.3 17.4 0.00 0.28 0.00 62 1016.9
20260504195716 60 279 12.2 14.8 0.00 0.28 0.00 62 1017.0
20260504195216 60 279 12.2 14.8 0.00 0.28 0.00 61 1016.8
20260504194717 60 276 10.4 13.0 0.00 0.28 0.00 61 1016.7
20260504194217 60 277 10.4 14.8 0.00 0.28 0.00 61 1016.8
20260504193717 61 275 10.4 13.9 0.00 0.28 0.00 61 1016.8
20260504193217 61 271 8.7 11.3 0.00 0.28 0.00 61 1016.8
20260504192717 61 272 8.7 11.3 0.00 0.28 0.00 60 1017.0
20260504192217 61 269 8.7 11.3 0.00 0.28 0.00 60 1016.9
20260504191717 61 266 9.6 12.2 0.00 0.28 0.00 59 1017.1
20260504191217 61 268 9.6 13.0 0.00 0.28 0.00 60 1016.7
20260504190717 61 263 11.3 14.8 0.00 0.28 0.00 60 1016.6
20260504190217 61 255 12.2 15.6 0.00 0.28 0.00 60 1016.8
20260504185717 62 248 12.2 17.4 0.00 0.28 0.00 59 1016.6
20260504185217 62 253 15.6 18.2 0.00 0.28 0.00 59 1016.4
20260504184717 62 246 15.6 20.9 0.00 0.28 0.00 59 1016.3
20260504184217 62 252 14.8 20.0 0.00 0.28 0.00 59 1016.0
20260504183716 62 250 15.6 20.9 0.00 0.28 0.00 59 1016.0
20260504183217 62 255 12.2 19.1 0.00 0.28 0.00 59 1016.0
20260504182717 62 257 13.9 20.9 0.00 0.28 0.00 59 1016.1
20260504182217 62 255 13.9 20.0 0.00 0.28 0.00 59 1016.1
20260504181717 62 250 13.0 20.9 0.00 0.28 0.00 59 1015.9
20260504181217 62 259 13.9 20.0 0.00 0.28 0.00 59 1015.8
20260504180716 62 254 14.8 20.9 0.00 0.28 0.00 59 1015.9
20260504180217 62 253 15.6 20.9 0.00 0.28 0.00 59 1016.0
20260504175716 62 250 13.9 21.7 0.00 0.28 0.00 59 1015.9
20260504175217 62 258 14.8 19.1 0.00 0.28 0.00 59 1015.9
20260504174217 62 262 14.8 20.9 0.00 0.28 0.00 58 1015.7
20260504173717 62 258 13.9 19.1 0.00 0.28 0.00 59 1015.9
20260504173217 62 258 13.0 20.9 0.00 0.28 0.00 59 1015.8
20260504172717 62 263 15.6 20.9 0.00 0.28 0.00 59 1015.9
20260504172217 62 259 14.8 18.2 0.00 0.28 0.00 60 1015.7
20260504171717 62 259 12.2 18.2 0.00 0.28 0.00 60 1015.9
20260504171216 63 259 13.0 20.9 0.00 0.28 0.00 60 1015.9
20260504170717 63 255 13.9 20.9 0.00 0.28 0.00 60 1015.7
20260504170216 63 253 12.2 17.4 0.00 0.28 0.00 60 1015.7
20260504150716 64 252 11.3 14.8 0.00 0.28 0.00 63 1016.0
20260504150216 64 246 13.0 17.4 0.00 0.28 0.00 63 1015.9
20260504140716 64 243 9.6 13.0 0.00 0.28 0.00 68 1015.7
20260504140216 64 247 10.4 14.8 0.00 0.28 0.00 69 1015.7
20260504130716 65 232 7.8 10.4 0.00 0.28 0.28 81 1015.9
20260504130216 65 242 7.8 11.3 0.00 0.28 0.28 81 1015.8
20260504120216 67 312 7.0 7.8 0.00 0.28 0.28 73 1015.9
20260504110716 68 331 7.8 10.4 0.00 0.28 0.28 71 1015.5
20260504110216 69 334 7.8 10.4 0.00 0.28 0.28 71 1015.5
20260504100216 69 344 7.8 11.3 0.00 0.28 0.28 71 1014.7
20260504081716 68 348 7.8 11.3 0.00 0.28 0.28 77 1014.5
20260504081215 68 351 7.8 10.4 0.00 0.28 0.28 77 1014.5
20260504080216 68 339 7.0 10.4 0.00 0.28 0.28 77 1014.4
20260504070215 68 0 6.1 11.3 0.00 0.28 0.28 77 1014.0
20260504060216 67 353 8.7 13.0 0.00 0.28 0.28 77 1014.1
20260504050715 67 347 7.8 11.3 0.00 0.28 0.28 79 1014.4
20260504050215 67 348 7.8 12.2 0.00 0.28 0.28 79 1014.1
20260504045716 67 347 7.8 13.9 0.00 0.28 0.28 79 1014.2
20260504044715 67 359 8.7 12.2 0.00 0.28 0.28 81 1014.1
20260504044216 67 1 6.1 11.3 0.00 0.28 0.28 82 1014.3
20260504042715 66 359 5.2 8.7 0.01 0.28 0.28 88 1014.4
20260504042215 66 2 2.6 7.0 0.01 0.28 0.28 89 1014.3
20260504041715 65 355 5.2 8.7 0.02 0.28 0.28 89 1014.6
20260504041216 65 2 6.1 10.4 0.04 0.28 0.28 90 1014.4
20260504040715 64 16 7.0 10.4 0.05 0.28 0.28 90 1014.5
20260504040216 64 23 7.8 11.3 0.07 0.28 0.28 90 1014.3
20260504035715 64 14 8.7 12.2 0.08 0.28 0.28 90 1014.4
20260504035215 64 2 9.6 13.0 0.10 0.28 0.28 90 1014.7
20260504034715 63 6 9.6 13.0 0.12 0.28 0.28 91 1014.7
20260504034215 63 14 10.4 13.9 0.12 0.28 0.28 91 1014.5
20260504033715 63 10 9.6 13.0 0.12 0.28 0.28 91 1015.0
20260504033216 63 4 7.8 13.9 0.12 0.27 0.27 91 1015.0
20260504032716 63 1 10.4 14.8 0.13 0.27 0.27 91 1015.3
20260504032215 63 2 11.3 14.8 0.13 0.27 0.27 91 1015.2
20260504031715 63 3 9.6 15.6 0.13 0.26 0.26 91 1015.4
20260504031216 63 354 7.0 13.0 0.12 0.24 0.24 91 1015.6
20260504030715 63 5 10.4 13.9 0.12 0.23 0.23 91 1015.6
20260504030215 63 0 9.6 13.0 0.11 0.21 0.21 90 1015.9
20260504025215 63 353 8.7 12.2 0.08 0.18 0.18 90 1016.1
20260504024215 64 10 7.8 12.2 0.07 0.16 0.16 90 1016.1
20260504023715 64 7 7.0 10.4 0.08 0.16 0.16 90 1016.3
20260504023215 64 0 6.1 7.8 0.09 0.15 0.15 89 1016.3
20260504022715 64 338 6.1 7.8 0.09 0.14 0.14 89 1016.5
20260504021715 64 333 2.6 4.3 0.10 0.13 0.13 89 1016.5
20260504020715 64 312 5.2 7.8 0.08 0.11 0.11 88 1016.9
20260504020215 64 313 5.2 6.1 0.08 0.10 0.10 88 1017.1
20260504015715 64 328 5.2 6.1 0.08 0.10 0.10 87 1017.1
20260504015215 64 325 3.5 6.1 0.08 0.10 0.10 87 1017.1
20260504014715 64 320 4.3 6.1 0.07 0.09 0.09 86 1017.2
20260504013715 64 323 4.3 7.0 0.06 0.08 0.08 86 1017.3
20260504013214 64 330 4.3 7.0 0.04 0.06 0.06 85 1017.5
20260504012715 64 329 6.1 7.0 0.03 0.05 0.05 85 1017.4
20260504012215 65 346 4.3 6.1 0.02 0.04 0.04 85 1017.5
20260504011715 65 330 4.3 5.2 0.01 0.03 0.03 85 1017.5
20260504011215 65 351 2.6 4.3 0.01 0.03 0.03 85 1017.5
20260504010715 65 298 3.5 7.0 0.02 0.03 0.03 84 1017.5
20260504010215 65 309 4.3 5.2 0.01 0.02 0.02 84 1017.6
20260504005215 65 222 4.3 5.2 0.02 0.02 0.02 84 1017.4
20260504004714 65 220 2.6 4.3 0.02 0.02 0.02 84 1017.4
20260504003214 65 270 0.0 2.6 0.02 0.02 0.02 83 1017.4
20260504002715 65 267 2.6 4.3 0.02 0.02 0.02 84 1017.6
20260504002215 64 281 3.5 5.2 0.02 0.02 0.02 83 1017.4
20260504001715 64 311 2.6 4.3 0.02 0.02 0.02 82 1017.5
20260504001215 64 334 2.6 6.1 0.02 0.02 0.02 82 1017.3
20260503235715 64 337 5.2 7.8 0.00 0.00 0.00 80 1017.8
20260503235215 65 321 6.1 8.7 0.00 0.00 0.00 80 1017.9